Showing default

SKYSAT C9, 42989

Orbit data source: Space-Track

SKYSAT C9, 42989 is a payload satellite owned by Terra Bella (US) in SSO that was launched on Tue, 31 Oct 2017 UTC via a MINOTAUR-C 3210 launch vehicle from the Air Force Western Test Range (AFWTR). Payload-class satellites include a variety of spacecraft equipped with specific instruments for various scientific and technological missions. These include communications satellites like Starlink; space stations such as the ISS; scientific satellites like the Hubble; Earth observation satellites from companies like Planet Labs, Umbra, and HawkEye 360; GPS; miniature CubeSats for education and research; and military/defense satellites.

Loading next visibility...
Identifier
42989, 2017-068C
Orbit
SSO
Country
Flag of USUS
Related business
Manufacturer
Maxar SSL
Mission
Operational Commercial Imaging
Bus & Motor
SKYSAT-GEN2, Unknown motor
Mass
110 kg wet, 110 kg dry
Launch date (UTC)
2017-10-31 (8 years ago)
Launch vehicle
MINOTAUR-C 3210
Launch site
Air Force Western Test Range (AFWTR)
Object type
Payload
Rocket body
Debris
Shape & HBR
Box, 0.6 m
Radar Cross Section
0.888 m², Medium (>0.1 m² and < 1m²)

Expand to show TLE details & history
Last TLE update: 1 day ago

TLE from 1 day ago
0 SKYSAT C9
1 42989U 17068C   25257.31669602  .00009828  00000-0  29597-3 0  9990
2 42989  97.4093  27.0707 0011636  70.6403 289.6097 15.34484434440364
Epoch: 2025-09-14T07:36Z
TLE epoch observation values (Epoch: 2025-09-14T07:36:02.536Z)
Latitude
0.00001°
Longitude
-80.47731°
Altitude
462.898 km
Speed
7.637 km/s
True Right ascension
01h 48m 16s
True Declination
0° 00' 00"
Sunlit
Object was in full shadow at epoch
Visualization orbit readout
Latitude
Unknown
Longitude
Unknown
Altitude
Unknown
Speed
Unknown
Apparent Right ascension
Unknown
Apparent Declination
Unknown
Sunlit
N/A
Visualization observer readout
Local Sidereal Time
01:19:27
Azimuth
Unknown
Elevation
Unknown
Doppler factor
Unknown
Orbital elements
Apogee altitude
467.355 km
Perigee altitude
451.443 km
Semi-major axis
6,837.536 km
Eccentricity
0.00116
Inclination
97.4093°
RAAN
27.0707°
Arg. of periapsis
70.6403°
True anomaly
289.48403°
Mean anomaly
289.6097°
Eccentric anomaly
289.54687°
Mean motion
3.83878 °/min
Orbital period
93.78 mins
BSTAR
0.00029597
Loading maneuver chart data...
Computing Atmospheric mass density...
Loading historical data...
Loading historical data...
Loading historical data...
Loading historical data...
Loading historical data...
Loading historical data...
Loading historical data...

Documentation

Showing up to 5 results
|